When you browse on this site, cookies collect data to enhance your experience and personalize the content and advertising you see.
Visit our Privacy Policy to learn more. By continuing to use the site, you agree to this use of cookies and data.
  • In Slovakia
  • List of Countries
  • For 7 days
  • Water Temperature
  • Satellite Maps
  • Weather Map
  • Weather Widgets
  • user-avatar
    Login

    Hourly Weather Muzaim

    Today, 22 April, Monday

    Time Temperature Precipitation Wind Pressure Humidity
    00:00 +5°C° 0 mm 1 mps 763 mmHg 94%
    01:00 +5°C° 0 mm 1 mps 763 mmHg 93%
    02:00 +5°C° 0 mm 1 mps 762 mmHg 92%
    03:00 +5°C° 0 mm 1 mps 762 mmHg 92%
    04:00 +5°C° 0 mm 1 mps 762 mmHg 89%
    05:00 +6°C° 0 mm 1 mps 762 mmHg 86%
    06:00 +6°C° 0 mm 1 mps 763 mmHg 83%
    07:00 +6°C° 0 mm 2 mps 762 mmHg 78%
    08:00 +8°C° 0 mm 2 mps 762 mmHg 73%
    09:00 +9°C° 0 mm 2 mps 762 mmHg 68%
    10:00 +9°C° 0.1 mm 3 mps 762 mmHg 69%
    11:00 +9°C° 0.1 mm 3 mps 762 mmHg 71%
    12:00 +9°C° 0.1 mm 3 mps 762 mmHg 72%
    13:00 +9°C° 0.1 mm 3 mps 762 mmHg 73%
    14:00 +9°C° 0.1 mm 3 mps 762 mmHg 75%
    15:00 +9°C° 0.1 mm 2 mps 762 mmHg 76%
    16:00 +8°C° 0 mm 2 mps 762 mmHg 77%
    17:00 +9°C° 0 mm 1 mps 762 mmHg 78%
    18:00 +8°C° 0 mm 0 mps 762 mmHg 79%
    19:00 +8°C° 0 mm 1 mps 763 mmHg 80%
    20:00 +7°C° 0 mm 2 mps 763 mmHg 81%
    21:00 +6°C° 0 mm 2 mps 763 mmHg 82%
    22:00 +6°C° 0 mm 2 mps 763 mmHg 80%
    23:00 +6°C° 0 mm 2 mps 764 mmHg 78%

    Tomorrow, 23 April, Tuesday

    Time Temperature Precipitation Wind Pressure Humidity
    00:00 +6°C° 0 mm 2 mps 764 mmHg 76%
    01:00 +6°C° 0 mm 2 mps 764 mmHg 75%
    02:00 +5°C° 0 mm 3 mps 764 mmHg 73%
    03:00 +5°C° 0 mm 3 mps 764 mmHg 71%
    04:00 +5°C° 0 mm 3 mps 764 mmHg 67%
    05:00 +7°C° 0 mm 3 mps 764 mmHg 63%
    06:00 +7°C° 0 mm 3 mps 765 mmHg 60%
    07:00 +8°C° 0 mm 4 mps 765 mmHg 54%
    08:00 +10°C° 0 mm 4 mps 765 mmHg 48%
    09:00 +12°C° 0 mm 4 mps 765 mmHg 43%
    10:00 +12°C° 0 mm 4 mps 765 mmHg 43%
    11:00 +13°C° 0 mm 4 mps 766 mmHg 44%
    12:00 +13°C° 0 mm 5 mps 766 mmHg 45%
    13:00 +13°C° 0 mm 4 mps 766 mmHg 46%
    14:00 +13°C° 0 mm 4 mps 766 mmHg 47%
    15:00 +13°C° 0 mm 4 mps 766 mmHg 48%
    16:00 +12°C° 0 mm 3 mps 766 mmHg 52%
    17:00 +12°C° 0 mm 2 mps 766 mmHg 56%
    18:00 +11°C° 0 mm 1 mps 766 mmHg 59%
    19:00 +10°C° 0 mm 1 mps 767 mmHg 61%
    20:00 +8°C° 0 mm 2 mps 767 mmHg 63%
    21:00 +7°C° 0 mm 2 mps 767 mmHg 65%
    22:00 +7°C° 0 mm 2 mps 768 mmHg 63%
    23:00 +7°C° 0 mm 3 mps 768 mmHg 62%

    Day after tomorrow, 24 April, Wednesday

    Time Temperature Precipitation Wind Pressure Humidity
    00:00 +8°C° 0 mm 3 mps 768 mmHg 61%
    01:00 +8°C° 0 mm 3 mps 768 mmHg 59%
    02:00 +8°C° 0 mm 3 mps 767 mmHg 56%
    03:00 +8°C° 0 mm 3 mps 767 mmHg 54%
    04:00 +8°C° 0 mm 3 mps 767 mmHg 54%
    05:00 +9°C° 0 mm 3 mps 768 mmHg 53%
    06:00 +9°C° 0 mm 3 mps 768 mmHg 52%
    07:00 +11°C° 0 mm 3 mps 767 mmHg 47%
    08:00 +13°C° 0 mm 3 mps 767 mmHg 42%
    09:00 +16°C° 0 mm 2 mps 767 mmHg 37%
    10:00 +16°C° 0 mm 3 mps 767 mmHg 37%
    11:00 +17°C° 0 mm 3 mps 767 mmHg 37%
    12:00 +17°C° 0 mm 3 mps 767 mmHg 37%
    13:00 +17°C° 0 mm 3 mps 766 mmHg 39%
    14:00 +17°C° 0 mm 3 mps 766 mmHg 40%
    15:00 +17°C° 0 mm 3 mps 766 mmHg 42%
    16:00 +16°C° 0 mm 2 mps 766 mmHg 47%
    17:00 +15°C° 0 mm 1 mps 766 mmHg 52%
    18:00 +14°C° 0 mm 1 mps 766 mmHg 57%
    19:00 +13°C° 0 mm 1 mps 766 mmHg 57%
    20:00 +13°C° 0 mm 2 mps 766 mmHg 57%
    21:00 +11°C° 0 mm 3 mps 767 mmHg 57%
    22:00 +11°C° 0 mm 3 mps 766 mmHg 56%
    23:00 +11°C° 0 mm 3 mps 766 mmHg 54%

    25 April, Thursday

    Time Temperature Precipitation Wind Pressure Humidity
    00:00 +11°C° 0 mm 3 mps 766 mmHg 53%
    01:00 +10°C° 0 mm 3 mps 766 mmHg 52%
    02:00 +10°C° 0 mm 2 mps 766 mmHg 51%
    03:00 +10°C° 0 mm 2 mps 766 mmHg 51%
    04:00 +10°C° 0 mm 2 mps 766 mmHg 50%
    05:00 +10°C° 0 mm 3 mps 766 mmHg 50%
    06:00 +11°C° 0 mm 3 mps 766 mmHg 50%
    07:00 +14°C° 0 mm 2 mps 766 mmHg 45%
    08:00 +15°C° 0 mm 1 mps 767 mmHg 40%
    09:00 +18°C° 0 mm 1 mps 767 mmHg 35%
    10:00 +18°C° 0 mm 2 mps 766 mmHg 35%
    11:00 +19°C° 0 mm 3 mps 766 mmHg 36%
    12:00 +19°C° 0 mm 4 mps 766 mmHg 36%
    13:00 +19°C° 0 mm 3 mps 766 mmHg 39%
    14:00 +18°C° 0 mm 3 mps 765 mmHg 43%
    15:00 +18°C° 0 mm 3 mps 765 mmHg 47%
    16:00 +17°C° 0 mm 2 mps 765 mmHg 51%
    17:00 +16°C° 0 mm 2 mps 765 mmHg 56%
    18:00 +16°C° 0 mm 1 mps 766 mmHg 60%
    19:00 +15°C° 0.1 mm 2 mps 766 mmHg 61%
    20:00 +15°C° 0.1 mm 2 mps 766 mmHg 61%
    21:00 +15°C° 0.1 mm 2 mps 767 mmHg 61%
    22:00 +14°C° 0 mm 2 mps 766 mmHg 60%
    23:00 +14°C° 0 mm 2 mps 766 mmHg 60%

    26 April, Friday

    Time Temperature Precipitation Wind Pressure Humidity
    00:00 +13°C° 0 mm 2 mps 766 mmHg 59%
    01:00 +12°C° 0 mm 3 mps 766 mmHg 57%
    02:00 +12°C° 0 mm 3 mps 766 mmHg 56%
    03:00 +11°C° 0 mm 3 mps 766 mmHg 54%
    04:00 +12°C° 0 mm 3 mps 766 mmHg 54%
    05:00 +13°C° 0 mm 2 mps 766 mmHg 54%
    06:00 +13°C° 0 mm 2 mps 766 mmHg 53%
    07:00 +15°C° 0 mm 2 mps 765 mmHg 50%
    08:00 +18°C° 0 mm 1 mps 765 mmHg 47%
    09:00 +19°C° 0 mm 1 mps 765 mmHg 44%
    10:00 +19°C° 0 mm 2 mps 765 mmHg 44%
    11:00 +20°C° 0 mm 3 mps 765 mmHg 44%
    12:00 +20°C° 0 mm 4 mps 765 mmHg 44%
    13:00 +20°C° 0 mm 4 mps 764 mmHg 46%
    14:00 +20°C° 0 mm 4 mps 764 mmHg 48%
    15:00 +19°C° 0 mm 5 mps 764 mmHg 50%
    16:00 +18°C° 0 mm 4 mps 764 mmHg 54%
    17:00 +17°C° 0 mm 3 mps 764 mmHg 59%
    18:00 +16°C° 0 mm 3 mps 764 mmHg 63%
    19:00 +15°C° 0 mm 2 mps 764 mmHg 65%
    20:00 +14°C° 0 mm 2 mps 765 mmHg 68%
    21:00 +13°C° 0 mm 2 mps 765 mmHg 70%
    22:00 +13°C° 0 mm 2 mps 765 mmHg 68%
    23:00 +13°C° 0 mm 2 mps 765 mmHg 66%

    27 April, Saturday

    Time Temperature Precipitation Wind Pressure Humidity
    00:00 +12°C° 0 mm 2 mps 764 mmHg 64%
    01:00 +12°C° 0 mm 2 mps 764 mmHg 63%
    02:00 +12°C° 0 mm 2 mps 764 mmHg 61%
    03:00 +12°C° 0 mm 1 mps 764 mmHg 59%
    04:00 +12°C° 0 mm 1 mps 764 mmHg 59%
    05:00 +13°C° 0 mm 1 mps 764 mmHg 58%
    06:00 +13°C° 0 mm 1 mps 764 mmHg 57%
    07:00 +15°C° 0 mm 2 mps 764 mmHg 51%
    08:00 +17°C° 0 mm 2 mps 764 mmHg 45%
    09:00 +19°C° 0 mm 3 mps 764 mmHg 39%
    10:00 +20°C° 0 mm 3 mps 764 mmHg 38%
    11:00 +21°C° 0 mm 4 mps 763 mmHg 37%
    12:00 +21°C° 0 mm 5 mps 763 mmHg 36%
    13:00 +21°C° 0 mm 5 mps 763 mmHg 37%
    14:00 +21°C° 0 mm 6 mps 762 mmHg 38%
    15:00 +21°C° 0 mm 6 mps 762 mmHg 39%
    16:00 +20°C° 0 mm 5 mps 762 mmHg 46%
    17:00 +17°C° 0 mm 5 mps 762 mmHg 53%
    18:00 +17°C° 0 mm 4 mps 762 mmHg 60%
    19:00 +15°C° 0 mm 4 mps 762 mmHg 62%
    20:00 +14°C° 0 mm 3 mps 763 mmHg 64%
    21:00 +12°C° 0 mm 3 mps 763 mmHg 66%
    22:00 +12°C° 0 mm 3 mps 763 mmHg 65%
    23:00 +12°C° 0 mm 3 mps 762 mmHg 64%
    Show more